This demonstration page uses our WeatherBlox Daily Observations layout. Learn more.

Left ArrowRight Arrow

39.51506, -84.39828

Hourly Observations for March 17, 2015

Temp ( °F °C ) Dew Point ( °F °C ) Humidity (%) Winds ( mph kmh ) Pressure ( in mb ) Visibility ( mi km ) Precip ( " mm )
12:15 am 00:15 Clear 61 16 43 6.1 52 52 WSW 8 13 29.88 1012 10 16 N/A
12:35 am 00:35 Clear 60 15.7 44 6.5 55 55 WSW 8 13 29.85 1011 10 16 N/A
12:55 am 00:55 Clear 60 15.3 44 6.8 57 57 WSW 8 13 29.85 1011 10 16 N/A
1:15 am 01:15 Clear 60 15.3 45 7.3 59 59 WSW 8 13 29.85 1011 10 16 N/A
1:35 am 01:35 Clear 60 15.3 45 7.3 59 59 WSW 9 15 29.85 1011 10 16 N/A
1:55 am 01:55 Clear 60 15.3 45 7.3 59 59 WSW 9 15 29.85 1011 10 16 N/A
2:15 am 02:15 Clear 60 15.3 45 7.4 60 60 WSW 10 17 29.85 1011 10 16 N/A
2:35 am 02:35 Clear 61 16 46 8 59 59 WSW 10 17 29.85 1011 10 16 N/A
2:55 am 02:55 Clear 60 15.7 47 8.3 62 62 WSW 10 17 29.83 1010 10 16 N/A
3:15 am 03:15 Clear 60 15.3 47 8.5 64 64 WSW 10 17 29.83 1010 10 16 N/A
3:35 am 03:35 Clear 60 15.3 48 9 66 66 WSW 9 15 29.83 1010 10 16 N/A
3:55 am 03:55 Clear 60 15.3 49 9.6 69 69 SW 9 15 29.83 1010 10 16 N/A
4:15 am 04:15 Clear 57 13.8 48 8.7 72 72 SW 8 13 29.83 1010 10 16 N/A
4:35 am 04:35 Clear 57 13.8 48 9 73 73 WSW 7 11 29.83 1010 10 16 N/A
4:55 am 04:55 Clear 57 13.8 49 9.3 74 74 WSW 7 11 29.83 1010 10 16 N/A
5:15 am 05:15 Clear 56 13.3 49 9.5 78 78 WSW 6 9 29.85 1011 10 16 N/A
5:35 am 05:35 Clear 55 12.5 48 8.8 78 78 N N/A 29.85 1011 10 16 N/A
5:55 am 05:55 Clear 56 13.6 50 9.9 79 79 W 3 6 29.88 1012 10 16 N/A
6:15 am 06:15 Partly Cloudy 57 13.9 50 10.1 78 78 W 6 9 29.88 1012 10 16 N/A
6:35 am 06:35 Mostly Cloudy 60 15.3 52 11.1 76 76 WNW 6 9 29.85 1011 10 16 N/A
6:55 am 06:55 Cloudy 60 15.3 51 10.7 74 74 NW 13 20 29.88 1012 10 16 N/A
7:15 am 07:15 Cloudy 57 13.8 47 8.1 69 69 N 21 33 29.94 1014 10 16 N/A
7:35 am 07:35 Partly Cloudy 55 12.5 43 6 65 65 N 15 24 29.94 1014 10 16 N/A
7:55 am 07:55 Sunny 55 12.5 42 5.6 63 63 N 12 19 29.97 1015 10 16 N/A
8:15 am 08:15 Sunny 55 12.5 43 6 65 65 N 17 28 29.97 1015 10 16 N/A
8:35 am 08:35 Sunny 51 10.6 41 4.9 68 68 N 17 28 30.00 1016 10 16 N/A
8:55 am 08:55 Mostly Cloudy 49 9.6 39 4.1 69 69 NNE 20 31 30.03 1017 10 16 N/A
9:15 am 09:15 Cloudy 49 9.6 40 4.6 71 71 NNE 16 26 30.06 1018 10 16 N/A
9:35 am 09:35 Cloudy 49 9.6 41 5 73 73 NNE 15 24 30.06 1018 10 16 N/A
9:55 am 09:55 Cloudy 49 9.6 40 4.6 71 71 NNE 12 19 30.06 1018 10 16 N/A
10:15 am 10:15 Cloudy 49 9.6 39 4 68 68 NNE 17 28 30.09 1019 10 16 N/A
10:35 am 10:35 Cloudy 49 9.6 37 2.8 63 63 N 16 26 30.09 1019 10 16 N/A
10:55 am 10:55 Cloudy 49 9.6 35 1.6 58 58 N 21 33 30.12 1020 10 16 N/A
11:15 am 11:15 Mostly Cloudy 49 9.6 37 2.5 62 62 N 14 22 30.12 1020 10 16 N/A
11:35 am 11:35 Partly Cloudy 52 11 35 1.5 52 52 N 17 28 30.12 1020 10 16 N/A
11:55 am 11:55 Partly Cloudy 55 12.5 34 1.2 46 46 N 18 30 30.15 1021 10 16 N/A
12:15 pm 12:15 Mostly Cloudy 52 11 32 0.2 48 48 N 15 24 30.15 1021 10 16 N/A
12:35 pm 12:35 Partly Cloudy 52 11.1 32 -0.1 46 46 N 18 30 30.15 1021 10 16 N/A
12:55 pm 12:55 Sunny 55 12.5 32 undefined 43 43 NNW 15 24 30.18 1022 10 16 N/A
1:15 pm 13:15 Sunny 55 12.5 30 -0.9 40 40 NNE 14 22 30.18 1022 10 16 N/A
1:35 pm 13:35 Sunny 55 12.5 32 undefined 43 43 N 15 24 30.18 1022 10 16 N/A
1:55 pm 13:55 Sunny 55 12.5 31 -0.3 42 42 N 14 22 30.18 1022 10 16 N/A
2:15 pm 14:15 Sunny 55 12.5 26 -3.2 34 34 N 12 19 30.18 1022 10 16 N/A
2:35 pm 14:35 Sunny 53 11.7 24 -4.4 32 32 N 16 26 30.18 1022 10 16 N/A
2:55 pm 14:55 Sunny 50 9.8 21 -5.9 33 33 N 14 22 30.18 1022 10 16 N/A
3:15 pm 15:15 Sunny 52 11 23 -4.8 33 33 NNE 14 22 30.18 1022 10 16 N/A
3:35 pm 15:35 Sunny 52 11 25 -3.8 36 36 N 18 30 30.18 1022 10 16 N/A
3:55 pm 15:55 Sunny 49 9.6 23 -4.8 36 36 N 15 24 30.21 1023 10 16 N/A
4:15 pm 16:15 Sunny 49 9.6 24 -4.2 38 38 N 13 20 30.21 1023 10 16 N/A
4:35 pm 16:35 Sunny 49 9.6 23 -4.9 36 36 NNW 14 22 30.21 1023 10 16 N/A
4:55 pm 16:55 Sunny 51 10.3 22 -5.4 33 33 N 14 22 30.21 1023 10 16 N/A
5:15 pm 17:15 Sunny 49 9.6 22 -5.6 34 34 NNE 13 20 30.21 1023 10 16 N/A
5:35 pm 17:35 Sunny 49 9.6 23 -5.1 35 35 NNW 12 19 30.21 1023 10 16 N/A
5:55 pm 17:55 Sunny 49 9.6 22 -5.7 34 34 N 15 24 30.21 1023 10 16 N/A
6:15 pm 18:15 Sunny 49 9.6 21 -5.9 33 33 NNE 16 26 30.21 1023 10 16 N/A
6:35 pm 18:35 Sunny 49 9.6 23 -4.8 36 36 N 12 19 30.21 1023 10 16 N/A
6:55 pm 18:55 Sunny 49 9.6 23 -4.8 36 36 NNW 8 13 30.24 1024 10 16 N/A
7:15 pm 19:15 Sunny 49 9.6 23 -5 36 36 NNW 12 19 30.24 1024 10 16 N/A
7:35 pm 19:35 Sunny 47 8.2 20 -6.4 35 35 N 7 11 30.24 1024 10 16 N/A
7:55 pm 19:55 Clear 44 6.6 18 -7.7 36 36 N 3 6 30.24 1024 10 16 N/A
8:15 pm 20:15 Clear 43 6 19 -7.3 38 38 N 5 7 30.24 1024 10 16 N/A
8:35 pm 20:35 Clear 42 5.6 19 -7.2 40 40 NNW 6 9 30.24 1024 10 16 N/A
8:55 pm 20:55 Clear 42 5.5 19 -7.1 40 40 NNW 3 6 30.30 1026 10 16 N/A
9:15 pm 21:15 Clear 41 5 19 -7.4 41 41 NNW 3 6 30.30 1026 10 16 N/A
9:35 pm 21:35 Clear 40 4.7 20 -6.9 43 43 N 8 13 30.30 1026 10 16 N/A
9:55 pm 21:55 Clear 40 4.7 18 -7.6 41 41 N 12 19 30.33 1027 10 16 N/A
10:15 pm 22:15 Clear 39 4 16 -9.1 38 38 N 13 20 30.33 1027 10 16 N/A
10:35 pm 22:35 Clear 39 4 17 -8.6 40 40 N 10 17 30.33 1027 10 16 N/A
10:55 pm 22:55 Clear 38 3.1 15 -9.5 39 39 N 14 22 30.36 1028 10 16 N/A
11:15 pm 23:15 Clear 37 2.6 14 -10 39 39 N 10 17 30.36 1028 10 16 N/A
11:35 pm 23:35 Clear 37 2.6 15 -9.7 40 40 N 6 9 30.36 1028 10 16 N/A
11:55 pm 23:55 Clear 35 1.9 13 -10.6 39 39 N 7 11 30.36 1028 10 16 N/A

Powered by AerisWeather